| time (UTC) | temp F | wind direction | speed knots | gust knots | rain 1hr in | rain 24hr in | rain mn in | humidity % | barometer mb |
| 20260831230110 | 100 | 304 | 0.9 | 2.6 | 0.00 | 0.00 | 0.00 | 46 | 1017.2 |
| 20260831225551 | 100 | 79 | 0.0 | 2.6 | 0.00 | 0.00 | 0.00 | 47 | 1017.3 |
| 20260831225051 | 99 | 88 | 0.9 | 2.6 | 0.00 | 0.00 | 0.00 | 48 | 1017.2 |
| 20260831224637 | 100 | 79 | 1.7 | 2.6 | 0.00 | 0.00 | 0.00 | 49 | 1017.2 |
| 20260831224051 | 100 | 102 | 0.0 | 1.7 | 0.00 | 0.00 | 0.00 | 47 | 1017.3 |
| 20260831223552 | 100 | 96 | 0.0 | 2.6 | 0.00 | 0.00 | 0.00 | 49 | 1017.3 |
| 20260831223110 | 99 | 79 | 0.9 | 4.3 | 0.00 | 0.00 | 0.00 | 48 | 1017.4 |
| 20260831222552 | 99 | 80 | 0.0 | 4.3 | 0.00 | 0.00 | 0.00 | 48 | 1017.4 |
| 20260831222051 | 99 | 101 | 0.9 | 4.3 | 0.00 | 0.00 | 0.00 | 48 | 1017.4 |
| 20260831221614 | 98 | 81 | 0.0 | 2.6 | 0.00 | 0.00 | 0.00 | 49 | 1017.5 |
| 20260831221053 | 98 | 267 | 0.9 | 2.6 | 0.00 | 0.00 | 0.00 | 48 | 1017.4 |
| 20260831220553 | 100 | 72 | 0.9 | 2.6 | 0.00 | 0.00 | 0.00 | 47 | 1017.5 |
| 20260831220109 | 100 | 79 | 0.9 | 4.3 | 0.00 | 0.00 | 0.00 | 48 | 1017.4 |
| 20260831215553 | 100 | 82 | 0.9 | 4.3 | 0.00 | 0.00 | 0.00 | 49 | 1017.5 |
| 20260831215053 | 100 | 32 | 0.9 | 2.6 | 0.00 | 0.00 | 0.00 | 48 | 1017.4 |
| 20260831214608 | 100 | 75 | 0.9 | 4.3 | 0.00 | 0.00 | 0.00 | 48 | 1017.5 |
| 20260831214056 | 99 | 138 | 0.9 | 4.3 | 0.00 | 0.00 | 0.00 | 49 | 1017.4 |
| 20260831213552 | 99 | 12 | 0.9 | 4.3 | 0.00 | 0.00 | 0.00 | 48 | 1017.5 |
| 20260831213117 | 100 | 65 | 1.7 | 4.3 | 0.00 | 0.00 | 0.00 | 48 | 1017.5 |
| 20260831212552 | 100 | 316 | 0.9 | 3.5 | 0.00 | 0.00 | 0.00 | 49 | 1017.6 |
| 20260831212051 | 100 | 91 | 0.9 | 3.5 | 0.00 | 0.00 | 0.00 | 51 | 1017.6 |
| 20260831211610 | 100 | 112 | 0.9 | 4.3 | 0.00 | 0.00 | 0.00 | 47 | 1017.7 |
| 20260831211052 | 100 | 79 | 0.9 | 4.3 | 0.00 | 0.00 | 0.00 | 47 | 1017.7 |
| 20260831210551 | 100 | 340 | 0.9 | 4.3 | 0.00 | 0.00 | 0.00 | 48 | 1017.8 |
| 20260831210107 | 100 | 96 | 0.9 | 3.5 | 0.00 | 0.00 | 0.00 | 52 | 1017.8 |
| 20260831205552 | 99 | 87 | 0.9 | 3.5 | 0.00 | 0.00 | 0.00 | 52 | 1017.8 |
| 20260831205052 | 99 | 84 | 0.9 | 3.5 | 0.00 | 0.00 | 0.00 | 50 | 1017.8 |
| 20260831204606 | 99 | 94 | 0.9 | 3.5 | 0.00 | 0.00 | 0.00 | 54 | 1017.8 |
| 20260831204053 | 98 | 84 | 0.9 | 3.5 | 0.00 | 0.00 | 0.00 | 53 | 1017.8 |
| 20260831203551 | 97 | 92 | 0.9 | 5.2 | 0.00 | 0.00 | 0.00 | 55 | 1017.9 |
| 20260831203103 | 98 | 95 | 0.9 | 5.2 | 0.00 | 0.00 | 0.00 | 51 | 1018.0 |
| 20260831202552 | 99 | 107 | 1.7 | 5.2 | 0.00 | 0.00 | 0.00 | 51 | 1017.9 |
| 20260831202052 | 99 | 92 | 0.9 | 4.3 | 0.00 | 0.00 | 0.00 | 53 | 1018.0 |
| 20260831201613 | 99 | 69 | 0.9 | 3.5 | 0.00 | 0.00 | 0.00 | 50 | 1018.0 |
| 20260831201052 | 98 | 95 | 0.9 | 2.6 | 0.00 | 0.00 | 0.00 | 56 | 1018.0 |
| 20260831200551 | 98 | 98 | 0.9 | 5.2 | 0.00 | 0.00 | 0.00 | 53 | 1018.1 |
| 20260831200103 | 97 | 76 | 1.7 | 5.2 | 0.00 | 0.00 | 0.00 | 54 | 1018.2 |
| 20260831195555 | 97 | 96 | 1.7 | 4.3 | 0.00 | 0.00 | 0.00 | 55 | 1018.2 |
| 20260831195051 | 97 | 118 | 1.7 | 4.3 | 0.00 | 0.00 | 0.00 | 54 | 1018.3 |
| 20260831194618 | 97 | 82 | 1.7 | 3.5 | 0.00 | 0.00 | 0.00 | 54 | 1018.4 |
| 20260831194052 | 97 | 93 | 0.9 | 4.3 | 0.00 | 0.00 | 0.00 | 55 | 1018.5 |
| 20260831193553 | 97 | 56 | 0.9 | 4.3 | 0.00 | 0.00 | 0.00 | 53 | 1018.5 |
| 20260831193105 | 98 | 75 | 1.7 | 5.2 | 0.00 | 0.00 | 0.00 | 53 | 1018.5 |
| 20260831192551 | 97 | 148 | 0.9 | 5.2 | 0.00 | 0.00 | 0.00 | 56 | 1018.6 |
| 20260831192050 | 97 | 85 | 1.7 | 5.2 | 0.00 | 0.00 | 0.00 | 54 | 1018.6 |
| 20260831191607 | 96 | 116 | 0.9 | 2.6 | 0.00 | 0.00 | 0.00 | 57 | 1018.7 |
| 20260831191051 | 95 | 134 | 0.9 | 4.3 | 0.00 | 0.00 | 0.00 | 56 | 1018.8 |
| 20260831190551 | 95 | 89 | 0.9 | 4.3 | 0.00 | 0.00 | 0.00 | 55 | 1018.9 |
| 20260831190132 | 96 | 86 | 1.7 | 4.3 | 0.00 | 0.00 | 0.00 | 53 | 1018.9 |
| 20260831185551 | 96 | 68 | 0.9 | 3.5 | 0.00 | 0.00 | 0.00 | 56 | 1019.1 |
| 20260831185051 | 96 | 93 | 1.7 | 3.5 | 0.00 | 0.00 | 0.00 | 58 | 1019.0 |
| 20260831184606 | 95 | 101 | 0.9 | 3.5 | 0.00 | 0.00 | 0.00 | 63 | 1019.1 |
| 20260831184052 | 95 | 122 | 1.7 | 3.5 | 0.00 | 0.00 | 0.00 | 55 | 1019.1 |
| 20260831183551 | 95 | 124 | 0.0 | 6.1 | 0.00 | 0.00 | 0.00 | 56 | 1019.3 |
| 20260831183104 | 96 | 134 | 1.7 | 6.1 | 0.00 | 0.00 | 0.00 | 54 | 1019.4 |
| 20260831182551 | 98 | 80 | 0.9 | 3.5 | 0.00 | 0.00 | 0.00 | 55 | 1019.4 |
| 20260831182051 | 97 | 0 | 0.9 | 4.3 | 0.00 | 0.00 | 0.00 | 58 | 1019.5 |
| 20260831181610 | 97 | 80 | 1.7 | 4.3 | 0.00 | 0.00 | 0.00 | 55 | 1019.6 |
| 20260831181053 | 97 | 86 | 1.7 | 3.5 | 0.00 | 0.00 | 0.00 | 56 | 1019.7 |
| 20260831180551 | 96 | 116 | 1.7 | 5.2 | 0.00 | 0.00 | 0.00 | 59 | 1019.8 |
| 20260831180110 | 96 | 90 | 0.9 | 5.2 | 0.00 | 0.00 | 0.00 | 58 | 1019.8 |
| 20260831175552 | 96 | 353 | 1.7 | 5.2 | 0.00 | 0.00 | 0.00 | 55 | 1019.9 |
| 20260831175052 | 96 | 30 | 1.7 | 5.2 | 0.00 | 0.00 | 0.00 | 57 | 1019.9 |
| 20260831174605 | 96 | 0 | 0.9 | 6.1 | 0.00 | 0.00 | 0.00 | 55 | 1020.0 |
| 20260831174054 | 96 | 114 | 1.7 | 6.1 | 0.00 | 0.00 | 0.00 | 55 | 1020.1 |
| 20260831173552 | 96 | 90 | 2.6 | 6.1 | 0.00 | 0.00 | 0.00 | 55 | 1020.2 |
| 20260831173105 | 96 | 74 | 1.7 | 3.5 | 0.00 | 0.00 | 0.00 | 55 | 1020.2 |
| 20260831172553 | 96 | 89 | 0.9 | 5.2 | 0.00 | 0.00 | 0.00 | 62 | 1020.3 |
| 20260831172051 | 96 | 77 | 0.9 | 5.2 | 0.00 | 0.00 | 0.00 | 56 | 1020.3 |
| 20260831171605 | 96 | 95 | 0.9 | 4.3 | 0.00 | 0.00 | 0.00 | 59 | 1020.3 |
| 20260831171052 | 96 | 79 | 0.9 | 4.3 | 0.00 | 0.00 | 0.00 | 60 | 1020.5 |
| 20260831170552 | 95 | 75 | 0.9 | 4.3 | 0.00 | 0.00 | 0.00 | 60 | 1020.5 |
| 20260831170106 | 96 | 80 | 0.9 | 4.3 | 0.00 | 0.00 | 0.00 | 57 | 1020.4 |
| 20260831165551 | 96 | 91 | 0.0 | 4.3 | 0.00 | 0.00 | 0.00 | 58 | 1020.4 |
| 20260831165051 | 96 | 335 | 0.9 | 3.5 | 0.00 | 0.00 | 0.00 | 58 | 1020.5 |
| 20260831164623 | 95 | 102 | 1.7 | 3.5 | 0.00 | 0.00 | 0.00 | 58 | 1020.6 |
| 20260831164052 | 95 | 109 | 0.9 | 3.5 | 0.00 | 0.00 | 0.00 | 63 | 1020.5 |
| 20260831163551 | 94 | 75 | 0.9 | 2.6 | 0.00 | 0.00 | 0.00 | 63 | 1020.6 |
| 20260831163103 | 93 | 94 | 0.0 | 3.5 | 0.00 | 0.00 | 0.00 | 62 | 1020.6 |
| 20260831162552 | 92 | 94 | 0.9 | 5.2 | 0.00 | 0.00 | 0.00 | 63 | 1020.6 |
| 20260831162051 | 93 | 48 | 1.7 | 5.2 | 0.00 | 0.00 | 0.00 | 60 | 1020.6 |
| 20260831161607 | 94 | 100 | 1.7 | 5.2 | 0.00 | 0.00 | 0.00 | 59 | 1020.5 |
| 20260831161056 | 93 | 39 | 0.9 | 3.5 | 0.00 | 0.00 | 0.00 | 62 | 1020.6 |
| 20260831160551 | 93 | 94 | 0.9 | 3.5 | 0.00 | 0.00 | 0.00 | 62 | 1020.5 |
| 20260831160106 | 94 | 90 | 0.9 | 3.5 | 0.00 | 0.00 | 0.00 | 59 | 1020.5 |
| 20260831155553 | 94 | 79 | 0.9 | 3.5 | 0.00 | 0.00 | 0.00 | 61 | 1020.6 |
| 20260831155052 | 94 | 116 | 0.9 | 3.5 | 0.00 | 0.00 | 0.00 | 61 | 1020.6 |
| 20260831154632 | 94 | 108 | 0.9 | 4.3 | 0.00 | 0.00 | 0.00 | 63 | 1020.6 |
| 20260831154052 | 93 | 98 | 0.9 | 6.1 | 0.00 | 0.00 | 0.00 | 64 | 1020.6 |
| 20260831153554 | 93 | 82 | 2.6 | 6.1 | 0.00 | 0.00 | 0.00 | 62 | 1020.5 |
| 20260831153110 | 93 | 108 | 1.7 | 4.3 | 0.00 | 0.00 | 0.00 | 63 | 1020.4 |
| 20260831152552 | 93 | 70 | 1.7 | 5.2 | 0.00 | 0.00 | 0.00 | 64 | 1020.4 |
| 20260831152053 | 92 | 56 | 2.6 | 6.1 | 0.00 | 0.00 | 0.00 | 65 | 1020.4 |
| 20260831151614 | 92 | 32 | 1.7 | 6.1 | 0.00 | 0.00 | 0.00 | 65 | 1020.3 |
| 20260831151052 | 93 | 340 | 2.6 | 4.3 | 0.00 | 0.00 | 0.00 | 63 | 1020.4 |
| 20260831150552 | 93 | 57 | 0.9 | 4.3 | 0.00 | 0.00 | 0.00 | 64 | 1020.3 |
| 20260831150113 | 92 | 86 | 0.0 | 3.5 | 0.00 | 0.00 | 0.00 | 69 | 1020.4 |
| 20260831145551 | 91 | 44 | 0.9 | 3.5 | 0.00 | 0.00 | 0.00 | 66 | 1020.4 |
| 20260831145051 | 91 | 285 | 1.7 | 4.3 | 0.00 | 0.00 | 0.00 | 66 | 1020.3 |
| 20260831144614 | 91 | 16 | 0.9 | 4.3 | 0.00 | 0.00 | 0.00 | 66 | 1020.4 |
| 20260831144052 | 91 | 56 | 0.0 | 2.6 | 0.00 | 0.00 | 0.00 | 68 | 1020.4 |
| 20260831143552 | 91 | 56 | 0.9 | 2.6 | 0.00 | 0.00 | 0.00 | 69 | 1020.4 |
| 20260831143123 | 90 | 70 | 0.9 | 2.6 | 0.00 | 0.00 | 0.00 | 70 | 1020.4 |
| 20260831142553 | 90 | 117 | 0.9 | 2.6 | 0.00 | 0.00 | 0.00 | 71 | 1020.3 |
| 20260831142055 | 90 | 106 | 0.9 | 2.6 | 0.00 | 0.00 | 0.00 | 70 | 1020.3 |
| 20260831141610 | 89 | 92 | 0.0 | 1.7 | 0.00 | 0.00 | 0.00 | 72 | 1020.3 |
| 20260831141051 | 89 | 91 | 0.0 | 1.7 | 0.00 | 0.00 | 0.00 | 72 | 1020.4 |
| 20260831140551 | 89 | 0 | 0.0 | 1.7 | 0.00 | 0.00 | 0.00 | 73 | 1020.4 |
| 20260831140111 | 88 | 0 | 0.0 | 1.7 | 0.00 | 0.00 | 0.00 | 75 | 1020.4 |
| 20260831135551 | 87 | 75 | 0.0 | 2.6 | 0.00 | 0.00 | 0.00 | 76 | 1020.3 |
| 20260831135052 | 86 | 79 | 0.9 | 2.6 | 0.00 | 0.00 | 0.00 | 76 | 1020.4 |
| 20260831134605 | 86 | 54 | 0.9 | 2.6 | 0.00 | 0.00 | 0.00 | 77 | 1020.3 |
| 20260831134051 | 85 | 81 | 0.0 | 2.6 | 0.00 | 0.00 | 0.00 | 79 | 1020.3 |
| 20260831133551 | 84 | 75 | 0.0 | 2.6 | 0.00 | 0.00 | 0.00 | 80 | 1020.2 |
| 20260831133108 | 83 | 75 | 0.0 | 2.6 | 0.00 | 0.00 | 0.00 | 83 | 1020.2 |
| 20260831132554 | 81 | 49 | 0.0 | 2.6 | 0.00 | 0.00 | 0.00 | 84 | 1020.2 |
| 20260831132053 | 80 | 50 | 0.9 | 2.6 | 0.00 | 0.00 | 0.00 | 84 | 1020.3 |
| 20260831131610 | 79 | 91 | 0.0 | 2.6 | 0.00 | 0.00 | 0.00 | 87 | 1020.2 |
| 20260831131052 | 78 | 0 | 0.9 | 2.6 | 0.00 | 0.00 | 0.00 | 89 | 1020.1 |
| 20260831130552 | 77 | 69 | 0.9 | 1.7 | 0.00 | 0.00 | 0.00 | 90 | 1020.1 |
| 20260831130127 | 76 | 0 | 0.0 | 1.7 | 0.00 | 0.00 | 0.00 | 92 | 1020.0 |
| 20260831125551 | 75 | 0 | 0.9 | 1.7 | 0.00 | 0.00 | 0.00 | 93 | 1020.0 |
| 20260831125053 | 74 | 0 | 0.0 | 2.6 | 0.00 | 0.00 | 0.00 | 94 | 1020.1 |
| 20260831124605 | 74 | 65 | 0.0 | 2.6 | 0.00 | 0.00 | 0.00 | 94 | 1020.0 |
| 20260831124051 | 73 | 75 | 0.0 | 0.9 | 0.00 | 0.00 | 0.00 | 95 | 1019.9 |
| 20260831123552 | 73 | 0 | 0.0 | 0.9 | 0.00 | 0.00 | 0.00 | 96 | 1019.9 |
| 20260831123103 | 72 | 0 | 0.0 | 0.9 | 0.00 | 0.00 | 0.00 | 96 | 1019.9 |
| 20260831122552 | 72 | 0 | 0.0 | 0.9 | 0.00 | 0.00 | 0.00 | 96 | 1019.8 |
| 20260831122052 | 72 | 0 | 0.0 | 0.9 | 0.00 | 0.00 | 0.00 | 96 | 1019.8 |
| 20260831121609 | 72 | 0 | 0.0 | 0.9 | 0.00 | 0.00 | 0.00 | 96 | 1019.6 |
| 20260831121055 | 72 | 0 | 0.0 | 0.9 | 0.00 | 0.00 | 0.00 | 96 | 1019.6 |
| 20260831120551 | 71 | 0 | 0.0 | 0.0 | 0.00 | 0.00 | 0.00 | 96 | 1019.5 |
| 20260831120113 | 71 | 0 | 0.0 | 0.0 | 0.00 | 0.00 | 0.00 | 96 | 1019.5 |
| 20260831115551 | 71 | 0 | 0.0 | 0.0 | 0.00 | 0.00 | 0.00 | 96 | 1019.5 |
| 20260831115052 | 71 | 0 | 0.0 | 0.9 | 0.00 | 0.00 | 0.00 | 96 | 1019.5 |
| 20260831114610 | 72 | 0 | 0.0 | 0.9 | 0.00 | 0.00 | 0.00 | 96 | 1019.5 |
| 20260831114052 | 71 | 75 | 0.0 | 0.9 | 0.00 | 0.00 | 0.00 | 96 | 1019.3 |
| 20260831113553 | 71 | 0 | 0.0 | 0.9 | 0.00 | 0.00 | 0.00 | 96 | 1019.2 |
| 20260831113108 | 71 | 0 | 0.0 | 0.9 | 0.00 | 0.00 | 0.00 | 96 | 1019.3 |
| 20260831112551 | 71 | 0 | 0.0 | 0.9 | 0.00 | 0.00 | 0.00 | 96 | 1019.1 |
| 20260831112051 | 71 | 0 | 0.0 | 0.9 | 0.00 | 0.00 | 0.00 | 95 | 1019.1 |
| 20260831111605 | 72 | 0 | 0.0 | 0.9 | 0.00 | 0.00 | 0.00 | 95 | 1019.0 |
| 20260831111051 | 72 | 0 | 0.0 | 0.0 | 0.00 | 0.00 | 0.00 | 95 | 1019.1 |
| 20260831110551 | 72 | 0 | 0.0 | 0.9 | 0.00 | 0.00 | 0.00 | 95 | 1019.1 |
| 20260831110108 | 72 | 0 | 0.0 | 0.9 | 0.00 | 0.00 | 0.00 | 95 | 1019.1 |
| 20260831105551 | 72 | 0 | 0.0 | 0.9 | 0.00 | 0.00 | 0.00 | 95 | 1019.0 |
| 20260831105052 | 72 | 0 | 0.0 | 0.9 | 0.00 | 0.00 | 0.00 | 94 | 1018.9 |
| 20260831104606 | 72 | 0 | 0.0 | 0.9 | 0.00 | 0.00 | 0.00 | 94 | 1018.8 |
| 20260831104051 | 72 | 0 | 0.0 | 0.9 | 0.00 | 0.00 | 0.00 | 94 | 1018.7 |
| 20260831103555 | 73 | 0 | 0.0 | 0.9 | 0.00 | 0.00 | 0.00 | 94 | 1018.7 |
| 20260831103104 | 73 | 0 | 0.0 | 0.9 | 0.00 | 0.00 | 0.00 | 94 | 1018.7 |
| 20260831102556 | 73 | 0 | 0.0 | 0.9 | 0.00 | 0.00 | 0.00 | 94 | 1018.5 |
| 20260831102051 | 73 | 0 | 0.0 | 0.9 | 0.00 | 0.00 | 0.00 | 94 | 1018.5 |
| 20260831101609 | 73 | 75 | 0.0 | 0.9 | 0.00 | 0.00 | 0.00 | 94 | 1018.5 |
| 20260831101051 | 73 | 0 | 0.0 | 0.9 | 0.00 | 0.00 | 0.00 | 93 | 1018.5 |
| 20260831100551 | 73 | 0 | 0.0 | 0.9 | 0.00 | 0.00 | 0.00 | 93 | 1018.4 |
| 20260831100109 | 73 | 0 | 0.0 | 0.9 | 0.00 | 0.00 | 0.00 | 93 | 1018.4 |
| 20260831095551 | 73 | 0 | 0.0 | 1.7 | 0.00 | 0.00 | 0.00 | 93 | 1018.2 |
| 20260831095052 | 73 | 73 | 0.0 | 1.7 | 0.00 | 0.00 | 0.00 | 93 | 1018.2 |
| 20260831094632 | 73 | 0 | 0.0 | 0.9 | 0.00 | 0.00 | 0.00 | 94 | 1018.2 |
| 20260831094052 | 73 | 0 | 0.0 | 0.9 | 0.00 | 0.00 | 0.00 | 94 | 1018.3 |
| 20260831093550 | 73 | 0 | 0.0 | 0.9 | 0.00 | 0.00 | 0.00 | 94 | 1018.3 |
| 20260831093107 | 73 | 84 | 0.0 | 0.9 | 0.00 | 0.00 | 0.00 | 94 | 1018.4 |
| 20260831092550 | 73 | 83 | 0.0 | 0.9 | 0.00 | 0.00 | 0.00 | 94 | 1018.3 |
| 20260831092049 | 73 | 0 | 0.0 | 0.9 | 0.00 | 0.00 | 0.00 | 94 | 1018.3 |
| 20260831091617 | 73 | 0 | 0.0 | 0.0 | 0.00 | 0.00 | 0.00 | 93 | 1018.3 |
| 20260831091049 | 73 | 0 | 0.0 | 0.9 | 0.00 | 0.00 | 0.00 | 93 | 1018.3 |
| 20260831090549 | 73 | 0 | 0.0 | 0.9 | 0.00 | 0.00 | 0.00 | 93 | 1018.3 |
| 20260831090107 | 73 | 0 | 0.0 | 0.0 | 0.00 | 0.00 | 0.00 | 93 | 1018.2 |
| 20260831085550 | 73 | 0 | 0.0 | 0.0 | 0.00 | 0.00 | 0.00 | 92 | 1018.3 |
| 20260831085050 | 73 | 0 | 0.0 | 0.0 | 0.00 | 0.00 | 0.00 | 92 | 1018.2 |
| 20260831084602 | 74 | 0 | 0.0 | 0.9 | 0.00 | 0.00 | 0.00 | 91 | 1018.1 |
| 20260831084049 | 74 | 0 | 0.0 | 0.9 | 0.00 | 0.00 | 0.00 | 91 | 1018.0 |
| 20260831083550 | 74 | 0 | 0.0 | 0.9 | 0.00 | 0.00 | 0.00 | 91 | 1018.0 |
| 20260831083107 | 74 | 0 | 0.0 | 0.9 | 0.00 | 0.00 | 0.00 | 91 | 1018.0 |
| 20260831082550 | 74 | 0 | 0.0 | 0.9 | 0.00 | 0.00 | 0.00 | 91 | 1018.0 |
| 20260831082050 | 74 | 0 | 0.0 | 0.9 | 0.00 | 0.00 | 0.00 | 91 | 1018.0 |
| 20260831081605 | 74 | 0 | 0.0 | 0.9 | 0.00 | 0.00 | 0.00 | 90 | 1017.8 |
| 20260831081051 | 74 | 0 | 0.0 | 0.9 | 0.00 | 0.00 | 0.00 | 90 | 1017.9 |
| 20260831080549 | 74 | 0 | 0.0 | 0.9 | 0.00 | 0.00 | 0.00 | 90 | 1017.8 |
| 20260831080106 | 75 | 0 | 0.0 | 0.9 | 0.00 | 0.00 | 0.00 | 90 | 1017.8 |
| 20260831075549 | 75 | 83 | 0.0 | 0.9 | 0.00 | 0.00 | 0.00 | 90 | 1017.8 |
| 20260831075050 | 75 | 0 | 0.0 | 0.9 | 0.00 | 0.00 | 0.00 | 89 | 1017.8 |
| 20260831074613 | 75 | 0 | 0.0 | 0.9 | 0.00 | 0.00 | 0.00 | 90 | 1017.9 |
| 20260831074051 | 75 | 0 | 0.0 | 0.9 | 0.00 | 0.00 | 0.00 | 89 | 1017.8 |
| 20260831073550 | 75 | 0 | 0.0 | 0.9 | 0.00 | 0.00 | 0.00 | 89 | 1017.8 |
| 20260831073107 | 75 | 83 | 0.0 | 0.9 | 0.00 | 0.00 | 0.00 | 89 | 1017.8 |
| 20260831072549 | 75 | 0 | 0.0 | 0.9 | 0.00 | 0.00 | 0.00 | 89 | 1017.8 |
| 20260831072050 | 75 | 83 | 0.0 | 0.9 | 0.00 | 0.00 | 0.00 | 88 | 1018.0 |
| 20260831071615 | 75 | 0 | 0.0 | 0.9 | 0.00 | 0.00 | 0.00 | 89 | 1018.0 |
| 20260831071051 | 75 | 0 | 0.0 | 0.9 | 0.00 | 0.00 | 0.00 | 89 | 1018.1 |
| 20260831070549 | 75 | 0 | 0.0 | 0.9 | 0.00 | 0.00 | 0.00 | 89 | 1018.1 |
| 20260831070107 | 75 | 0 | 0.0 | 0.9 | 0.00 | 0.00 | 0.00 | 89 | 1018.1 |
| 20260831065549 | 75 | 0 | 0.0 | 0.9 | 0.00 | 0.00 | 0.00 | 89 | 1018.2 |
| 20260831065051 | 75 | 0 | 0.0 | 0.9 | 0.00 | 0.00 | 0.00 | 90 | 1018.1 |
| 20260831064620 | 75 | 0 | 0.0 | 0.9 | 0.00 | 0.00 | 0.00 | 90 | 1018.2 |
| 20260831064050 | 75 | 0 | 0.0 | 0.0 | 0.00 | 0.00 | 0.00 | 90 | 1018.3 |
| 20260831063550 | 75 | 0 | 0.0 | 0.9 | 0.00 | 0.00 | 0.00 | 89 | 1018.3 |
| 20260831063117 | 76 | 0 | 0.0 | 0.9 | 0.00 | 0.00 | 0.00 | 89 | 1018.4 |
| 20260831062552 | 76 | 0 | 0.0 | 0.9 | 0.00 | 0.00 | 0.00 | 89 | 1018.3 |
| 20260831062052 | 76 | 0 | 0.0 | 0.9 | 0.00 | 0.00 | 0.00 | 88 | 1018.4 |
| 20260831061603 | 76 | 0 | 0.0 | 0.9 | 0.00 | 0.00 | 0.00 | 89 | 1018.4 |
| 20260831061052 | 76 | 0 | 0.0 | 0.9 | 0.00 | 0.00 | 0.00 | 87 | 1018.3 |
| 20260831060551 | 77 | 0 | 0.0 | 0.9 | 0.00 | 0.00 | 0.00 | 85 | 1018.4 |
| 20260831060126 | 77 | 0 | 0.0 | 0.9 | 0.00 | 0.00 | 0.00 | 86 | 1018.4 |
| 20260831055551 | 77 | 0 | 0.0 | 0.9 | 0.00 | 0.00 | 0.00 | 85 | 1018.4 |
| 20260831055052 | 77 | 0 | 0.0 | 0.9 | 0.00 | 0.00 | 0.00 | 85 | 1018.4 |
| 20260831054602 | 77 | 0 | 0.0 | 0.9 | 0.00 | 0.00 | 0.00 | 84 | 1018.3 |
| 20260831054051 | 78 | 0 | 0.0 | 0.9 | 0.00 | 0.00 | 0.00 | 84 | 1018.3 |
| 20260831053552 | 78 | 0 | 0.0 | 0.9 | 0.00 | 0.00 | 0.00 | 83 | 1018.4 |
| 20260831053112 | 78 | 0 | 0.0 | 0.9 | 0.00 | 0.00 | 0.00 | 82 | 1018.3 |
| 20260831052552 | 78 | 0 | 0.0 | 0.9 | 0.00 | 0.00 | 0.00 | 82 | 1018.3 |
| 20260831052051 | 79 | 0 | 0.0 | 0.9 | 0.00 | 0.00 | 0.00 | 81 | 1018.2 |
| 20260831051614 | 79 | 0 | 0.0 | 0.9 | 0.00 | 0.00 | 0.00 | 80 | 1018.2 |
| 20260831051051 | 79 | 0 | 0.0 | 0.9 | 0.00 | 0.00 | 0.00 | 80 | 1018.2 |
| 20260831050551 | 79 | 82 | 0.0 | 1.7 | 0.00 | 0.00 | 0.00 | 80 | 1018.1 |
| 20260831050120 | 79 | 85 | 0.0 | 1.7 | 0.00 | 0.00 | 0.00 | 80 | 1018.2 |
| 20260831045551 | 80 | 0 | 0.0 | 1.7 | 0.00 | 0.00 | 0.00 | 79 | 1018.2 |
| 20260831045051 | 80 | 0 | 0.0 | 1.7 | 0.00 | 0.00 | 0.00 | 79 | 1018.1 |
| 20260831044607 | 80 | 71 | 0.0 | 1.7 | 0.00 | 0.00 | 0.00 | 79 | 1018.2 |
| 20260831044052 | 80 | 0 | 0.0 | 0.9 | 0.00 | 0.00 | 0.00 | 78 | 1018.3 |
| 20260831043553 | 80 | 0 | 0.0 | 2.6 | 0.00 | 0.00 | 0.00 | 78 | 1018.3 |
| 20260831043103 | 81 | 50 | 0.0 | 2.6 | 0.00 | 0.00 | 0.00 | 78 | 1018.3 |
| 20260831042552 | 81 | 41 | 0.9 | 2.6 | 0.00 | 0.00 | 0.00 | 77 | 1018.3 |
| 20260831042054 | 81 | 57 | 0.0 | 2.6 | 0.00 | 0.00 | 0.00 | 77 | 1018.3 |
| 20260831041604 | 81 | 68 | 0.9 | 2.6 | 0.00 | 0.00 | 0.00 | 77 | 1018.3 |
| 20260831041055 | 81 | 61 | 0.9 | 2.6 | 0.00 | 0.00 | 0.00 | 77 | 1018.3 |
| 20260831040553 | 81 | 77 | 0.9 | 2.6 | 0.00 | 0.00 | 0.00 | 77 | 1018.3 |
| 20260831040105 | 81 | 21 | 0.9 | 2.6 | 0.00 | 0.00 | 0.00 | 77 | 1018.3 |
| 20260831035553 | 82 | 0 | 0.9 | 1.7 | 0.00 | 0.00 | 0.00 | 76 | 1018.3 |
| 20260831035051 | 82 | 70 | 0.0 | 3.5 | 0.00 | 0.00 | 0.00 | 76 | 1018.3 |
| 20260831034600 | 82 | 75 | 0.9 | 3.5 | 0.00 | 0.00 | 0.00 | 76 | 1018.2 |
| 20260831034051 | 82 | 100 | 0.9 | 2.6 | 0.00 | 0.00 | 0.00 | 76 | 1018.2 |
| 20260831033553 | 82 | 46 | 0.9 | 2.6 | 0.00 | 0.00 | 0.00 | 76 | 1018.1 |
| 20260831033113 | 82 | 66 | 0.0 | 2.6 | 0.00 | 0.00 | 0.00 | 76 | 1018.1 |
| 20260831032551 | 82 | 0 | 0.9 | 2.6 | 0.00 | 0.00 | 0.00 | 76 | 1018.0 |
| 20260831032052 | 82 | 93 | 0.0 | 2.6 | 0.00 | 0.00 | 0.00 | 76 | 1018.1 |
| 20260831031605 | 82 | 86 | 0.9 | 3.5 | 0.00 | 0.00 | 0.00 | 75 | 1018.0 |
| 20260831031053 | 82 | 82 | 0.9 | 3.5 | 0.00 | 0.00 | 0.00 | 75 | 1018.0 |
| 20260831030552 | 82 | 71 | 0.0 | 3.5 | 0.00 | 0.00 | 0.00 | 75 | 1018.0 |
| 20260831030105 | 83 | 53 | 0.9 | 3.5 | 0.00 | 0.00 | 0.00 | 75 | 1018.0 |
| 20260831025553 | 83 | 50 | 0.9 | 2.6 | 0.00 | 0.00 | 0.00 | 75 | 1017.9 |
| 20260831025055 | 83 | 70 | 0.0 | 2.6 | 0.00 | 0.00 | 0.00 | 75 | 1017.9 |
| 20260831024605 | 83 | 96 | 0.0 | 2.6 | 0.00 | 0.00 | 0.00 | 75 | 1017.9 |
| 20260831024053 | 83 | 75 | 0.0 | 2.6 | 0.00 | 0.00 | 0.00 | 75 | 1017.9 |
| 20260831023552 | 84 | 31 | 0.9 | 3.5 | 0.00 | 0.00 | 0.00 | 74 | 1017.8 |
| 20260831023111 | 84 | 60 | 0.9 | 3.5 | 0.00 | 0.00 | 0.00 | 74 | 1017.8 |
| 20260831022552 | 84 | 52 | 0.9 | 3.5 | 0.00 | 0.00 | 0.00 | 74 | 1017.7 |
| 20260831022052 | 84 | 94 | 0.9 | 2.6 | 0.00 | 0.00 | 0.00 | 74 | 1017.7 |
| 20260831021614 | 84 | 94 | 0.9 | 2.6 | 0.00 | 0.00 | 0.00 | 74 | 1017.7 |
| 20260831021053 | 84 | 47 | 0.9 | 2.6 | 0.00 | 0.00 | 0.00 | 74 | 1017.6 |
| 20260831020552 | 84 | 32 | 0.0 | 1.7 | 0.00 | 0.00 | 0.00 | 74 | 1017.5 |
| 20260831020116 | 84 | 81 | 0.0 | 1.7 | 0.00 | 0.00 | 0.00 | 74 | 1017.4 |
| 20260831015552 | 84 | 83 | 0.0 | 1.7 | 0.00 | 0.00 | 0.00 | 73 | 1017.4 |
| 20260831015051 | 84 | 68 | 0.0 | 2.6 | 0.00 | 0.00 | 0.00 | 73 | 1017.4 |
| 20260831014604 | 85 | 134 | 0.0 | 2.6 | 0.00 | 0.00 | 0.00 | 72 | 1017.2 |
| 20260831014051 | 85 | 80 | 0.0 | 1.7 | 0.00 | 0.00 | 0.00 | 72 | 1017.3 |
| 20260831013551 | 85 | 0 | 0.0 | 1.7 | 0.00 | 0.00 | 0.00 | 72 | 1017.3 |
| 20260831013101 | 85 | 78 | 0.0 | 1.7 | 0.00 | 0.00 | 0.00 | 72 | 1017.4 |
| 20260831012552 | 85 | 115 | 0.0 | 1.7 | 0.00 | 0.00 | 0.00 | 72 | 1017.3 |
| 20260831012052 | 86 | 129 | 0.0 | 1.7 | 0.00 | 0.00 | 0.00 | 71 | 1017.2 |
| 20260831011609 | 86 | 81 | 0.0 | 1.7 | 0.00 | 0.00 | 0.00 | 70 | 1017.1 |
| 20260831011052 | 86 | 81 | 0.0 | 1.7 | 0.00 | 0.00 | 0.00 | 70 | 1017.1 |
| 20260831010552 | 86 | 79 | 0.0 | 1.7 | 0.00 | 0.00 | 0.00 | 69 | 1017.0 |
| 20260831005556 | 87 | 74 | 0.0 | 0.9 | 0.00 | 0.00 | 0.00 | 69 | 1017.0 |
| 20260831005052 | 87 | 74 | 0.0 | 0.9 | 0.00 | 0.00 | 0.00 | 67 | 1016.9 |
| 20260831004600 | 88 | 0 | 0.0 | 0.9 | 0.00 | 0.00 | 0.00 | 66 | 1016.9 |
| 20260831004052 | 88 | 73 | 0.0 | 1.7 | 0.00 | 0.00 | 0.00 | 65 | 1016.9 |
| 20260831003551 | 88 | 79 | 0.0 | 1.7 | 0.00 | 0.00 | 0.00 | 65 | 1017.0 |
| 20260831003105 | 89 | 0 | 0.0 | 0.9 | 0.00 | 0.00 | 0.00 | 64 | 1016.9 |
| 20260831002644 | 89 | 0 | 0.0 | 0.9 | 0.00 | 0.00 | 0.00 | 64 | 1016.9 |
| 20260831002052 | 89 | 0 | 0.0 | 0.9 | 0.00 | 0.00 | 0.00 | 63 | 1016.9 |
| 20260831001559 | 90 | 0 | 0.0 | 1.7 | 0.00 | 0.00 | 0.00 | 62 | 1016.8 |
| 20260831001051 | 90 | 79 | 0.0 | 1.7 | 0.00 | 0.00 | 0.00 | 62 | 1016.7 |
| 20260831000551 | 91 | 76 | 0.0 | 1.7 | 0.00 | 0.00 | 0.00 | 62 | 1016.8 |
| 20260831000112 | 91 | 0 | 0.0 | 2.6 | 0.00 | 0.00 | 0.00 | 61 | 1016.9 |
| 20260830235552 | 91 | 0 | 0.0 | 3.5 | 0.00 | 0.00 | 0.00 | 61 | 1016.8 |
| 20260830235053 | 92 | 72 | 0.0 | 3.5 | 0.00 | 0.00 | 0.00 | 60 | 1016.8 |
| 20260830234613 | 92 | 88 | 0.9 | 3.5 | 0.00 | 0.00 | 0.00 | 59 | 1016.8 |
| 20260830234056 | 92 | 280 | 0.9 | 3.5 | 0.00 | 0.00 | 0.00 | 58 | 1017.0 |
| 20260830233553 | 93 | 98 | 0.9 | 3.5 | 0.00 | 0.00 | 0.00 | 58 | 1016.9 |
| 20260830233103 | 93 | 81 | 0.9 | 4.3 | 0.00 | 0.00 | 0.00 | 58 | 1016.9 |
| 20260830232553 | 93 | 110 | 0.9 | 4.3 | 0.00 | 0.00 | 0.00 | 57 | 1016.8 |
| 20260830232053 | 94 | 174 | 1.7 | 4.3 | 0.00 | 0.00 | 0.00 | 57 | 1016.7 |
| 20260830231612 | 93 | 245 | 0.9 | 4.3 | 0.00 | 0.00 | 0.00 | 58 | 1016.7 |
| 20260830231051 | 93 | 96 | 1.7 | 4.3 | 0.00 | 0.00 | 0.00 | 57 | 1016.7 |
| 20260830230551 | 94 | 335 | 0.9 | 3.5 | 0.00 | 0.00 | 0.00 | 57 | 1016.8 |